This is the latest recevied weather packets stored in our database for station/object K0CPM-2. If no packets are shown the sender has not sent any weather packets the latest 10 day(s).
| Time | Temp. | Humidity | Pressure | Rain* | Wind** | Luminosity | Snow |
|---|---|---|---|---|---|---|---|
| 1787768142 | 35.56° C | 59% | 1013 hPa | 0 mm | - | - | - |
| 1787767246 | 35° C | 61% | 1013.2 hPa | 0 mm | - | - | - |
| 1787766339 | 35.56° C | 62% | 1013.3 hPa | 0 mm | - | - | - |
| 1787765435 | 34.44° C | 63% | 1013.4 hPa | 0 mm | - | - | - |
| 1787764533 | 34.44° C | 67% | 1013.4 hPa | 0 mm | - | - | - |
| 1787763631 | 34.44° C | 68% | 1013.6 hPa | 0 mm | - | - | - |
| 1787762736 | 34.44° C | 68% | 1013.7 hPa | 0 mm | - | - | - |
| 1787761830 | 34.44° C | 69% | 1013.8 hPa | 0 mm | - | - | - |
| 1787760927 | 33.89° C | 67% | 1013.7 hPa | 0 mm | - | - | - |
| 1787760017 | 33.89° C | 70% | 1013.7 hPa | 0 mm | - | - | - |
| 1787759110 | 33.89° C | 71% | 1013.5 hPa | 0 mm | - | - | - |
| 1787758205 | 33.89° C | 69% | 1013.5 hPa | 0 mm | - | - | - |
| 1787757301 | 33.33° C | 70% | 1013.5 hPa | 0 mm | - | - | - |
| 1787756478 | 32.78° C | 71% | 1013.3 hPa | 0 mm | - | - | - |
| 1787755558 | 32.78° C | 71% | 1013.3 hPa | 0 mm | - | - | - |
| 1787754660 | 32.22° C | 72% | 1013.2 hPa | 0 mm | - | - | - |
| 1787753765 | 31.67° C | 74% | 1013.1 hPa | 0 mm | - | - | - |
| 1787752850 | 31.67° C | 76% | 1013.3 hPa | 0 mm | - | - | - |
| 1787751947 | 31.11° C | 79% | 1013.2 hPa | 0 mm | - | - | - |
| 1787751048 | 30° C | 81% | 1013.3 hPa | 0 mm | - | - | - |
| 1787750137 | 28.89° C | 88% | 1013.5 hPa | 0 mm | - | - | - |
| 1787749233 | 26.67° C | 94% | 1013.6 hPa | 0 mm | - | - | - |
| 1787748329 | 25° C | 96% | 1013.6 hPa | 0 mm | - | - | - |
| 1787747424 | 24.44° C | 96% | 1013.5 hPa | 0 mm | - | - | - |
| 1787746523 | 23.89° C | 96% | 1013.5 hPa | 0 mm | - | - | - |
* Rain latest hour (hover to see other rain measurements)
** Current wind speed in m/s (hover to see current wind gust speed)